Terug naar catalogus

SL-12 R/B(2)

ActiefGEO
NORAD 25318·ROCKET BODY·🇷🇺 Russia

Gelanceerd Apr 29, 1998 vanaf Baikonur Cosmodrome

Loading…

TLE

VersSource: Space-Track

Epoch: Sep 13, 2026, 20:12 UTC

1 25318U 98025D   26256.84191683 -.00000018  00000-0  00000-0 0  9994
2 25318  14.0194   3.2219 0029914 138.2951 223.7586  1.00032503103664

Volg SL-12 R/B(2) in realtime met AllMySat

Download on the App Store